Weather in Velikodvorskiy

Russia / Vladimir Oblast     55°14′57″N   40°39′54″E
temp.,
°C
wind,
m/s
gust,
m/s
humid.,
%
clouds,
%
prec.,
mm/h
press.,
hPa
HPBL,
m
25 june, sat
sat2500:00+15nne25785 0.0 101591
03:00+13nne24835 0.0 101669
06:00+16n26765 0.0 1017163
09:00+24nne35495 0.0 10171070
12:00+27ne353710 0.0 10172244
15:00+28ne35343 0.0 10172489
18:00+27nne464578 0.0 1017794
21:00+21nne256881 0.0 101893
26 june, sun
sun2600:00+17n22800 0.0 102012
03:00+17nnw2282100 0.0 102017
06:00+19nnw257687 0.0 1021146
09:00+25n34510 0.0 1021877
12:00+29n353986 0.0 10212619
15:00+28nnw244092 0.0 10201554
18:00+26nnw235838 0.0 102095
21:00+21ene11750 0.0 102111
27 june, mon
mon2700:00+19s22790 0.0 102126
03:00+18wsw11850 0.0 102011
06:00+21w25740 0.0 1020148
09:00+27wnw35540 0.0 1019719
12:00+31nw57390 0.0 10182512
15:00+32nnw68330 0.0 10172914
18:00+29n59440 0.0 10171402
21:00+22nnw37710 0.0 1017157
28 june, tue
tue2800:00+18n36800 0.0 1018125
03:00+16nne310882 0.0 1020337
06:00+16nne49700 0.0 1021572
09:00+19ne46400 0.0 10221174
12:00+22nne56290 0.0 10221768
15:00+22n56280 0.0 10222008
18:00+21nne45361 0.0 10222013
21:00+13ne22590 0.0 102323
29 june, wed
wed2900:00+10nne22680 0.0 102412
03:00+9n23724 0.0 102553
06:00+12nne24640 0.0 1025172
09:00+18nne353840 0.0 10251450
12:00+21ne45280 0.0 10252129
15:00+22ne34270 0.0 10242273
18:00+22nne34345 0.0 10232311
21:00+14n22623 0.0 102434